Waarnemingen

Advertentie
Mijn weer
Carcassonne, Frankrijk (7635): temperatuur & dauwpunt: 17.05.2019 11:00:00 - 23.05.2019 11:00:00 (CEST)Carcassonne, Frankrijk (7635): temperatuur 5cm: 17.05.2019 11:00:00 - 23.05.2019 11:00:00 (CEST)Carcassonne, Frankrijk (7635): temperatuur -20cm & temperatuur -100cm: 17.05.2019 11:00:00 - 23.05.2019 11:00:00 (CEST)Carcassonne, Frankrijk (7635): windsnelheid & windstoten: 17.05.2019 11:00:00 - 23.05.2019 11:00:00 (CEST)Carcassonne, Frankrijk (7635): windrichting: 17.05.2019 11:00:00 - 23.05.2019 11:00:00 (CEST)Carcassonne, Frankrijk (7635): luchtdruk: 17.05.2019 11:00:00 - 23.05.2019 11:00:00 (CEST)Carcassonne, Frankrijk (7635): zicht: 17.05.2019 11:00:00 - 23.05.2019 11:00:00 (CEST)Carcassonne, Frankrijk (7635): Zonneschijnduur: 17.05.2019 11:00:00 - 23.05.2019 11:00:00 (CEST)Carcassonne, Frankrijk (7635): neerslag: 17.05.2019 11:00:00 - 23.05.2019 11:00:00 (CEST)
Datum & Tijd tt [°C] td [°C] tt 5cm [°C] tt -20cm [°C] tt -100cm [°C] ff [km/u] ff [kn] fx [km/u] fx [kn] dd ppp [hPa] vv [km] sd [min] rr [mm]
23.05.2019 11:00:00 22,2 9,7 24,8 17,5 15,7 5 3 10 6 NNW 1017,3 18 60 0,0
23.05.2019 10:00:00 19,0 10,5 19,8 17,5 15,7 4 2 9 5 W 1017,8 36 60 0,0
23.05.2019 09:00:00 15,9 11,1 13,1 17,6 15,7 4 2 9 5 WNW 1018,0 40 60 0,0
23.05.2019 08:00:00 13,4 10,4 7,7 17,8 15,7 0 0 5 3 N 1017,9 25 51 0,0
23.05.2019 07:00:00 9,9 9,4 5,8 18,1 15,7 3 2 7 4 Z 1017,8 29 17 0,0
23.05.2019 06:00:00 9,1 8,3 5,9 18,3 15,7 0 0 5 3 N 1017,5 19 0 0,0
23.05.2019 05:00:00 9,8 8,1 6,4 18,5 15,7 2 1 18 10 Z 1017,5 44 0 0,0
23.05.2019 04:00:00 10,1 8,4 7,0 18,8 15,7 4 2 9 5 Z 1017,6 46 0 0,0
23.05.2019 03:00:00 11,2 8,9 7,7 19,0 15,7 3 2 16 9 W 1017,5 52 0 0,0
23.05.2019 02:00:00 13,2 9,4 10,4 19,2 15,7 9 5 19 10 Z 1017,8 53 0 0,0
23.05.2019 01:00:00 13,8 9,6 9,2 19,4 15,7 6 4 14 8 ZZO 1017,9 58 0 0,0
23.05.2019 00:00:00 15,2 10,0 10,3 19,6 15,7 3 2 11 6 ZW 1018,0 60 0 0,0
22.05.2019 23:00:00 15,9 10,0 11,3 19,9 15,7 7 4 16 8 W 1018,0 60 0 0,0
22.05.2019 22:00:00 18,7 9,7 13,9 20,0 15,6 9 5 16 8 WZW 1017,3 60 0 0,0
22.05.2019 21:00:00 20,1 10,5 17,1 20,1 15,7 8 5 20 11 W 1016,9 60 50 0,0
22.05.2019 20:00:00 23,8 9,4 24,6 20,0 15,6 14 8 26 14 NW 1016,3 60 60 0,0
22.05.2019 19:00:00 24,8 9,1 27,8 19,9 15,6 16 9 26 14 NNW 1016,2 53 60 0,0
22.05.2019 18:00:00 25,0 8,0 29,3 19,6 15,6 19 11 34 18 NW 1016,4 19 60 0,0
22.05.2019 17:00:00 25,4 8,0 29,4 19,1 15,6 15 8 34 19 NNW 1016,6 39 60 0,0
22.05.2019 16:00:00 24,5 8,0 29,8 18,7 15,6 16 9 34 19 WNW 1016,8 20 60 0,0
22.05.2019 15:00:00 24,3 10,6 29,7 18,1 15,6 20 11 37 20 WNW 1017,3 35 60 0,0
22.05.2019 14:00:00 23,0 10,8 28,7 17,6 15,6 21 11 37 20 W 1017,9 33 60 0,0
22.05.2019 13:00:00 21,9 10,1 26,8 17,2 15,6 22 12 37 20 W 1018,4 34 60 0,0
22.05.2019 12:00:00 20,5 10,6 24,9 16,8 15,6 24 13 38 21 W 1018,9 37 60 0,0
22.05.2019 11:00:00 19,9 11,4 21,5 16,7 15,6 23 13 34 19 W 1019,1 40 60 0,0
22.05.2019 10:00:00 18,0 11,1 17,5 16,7 15,6 21 11 35 19 W 1019,2 19 60 0,0
22.05.2019 09:00:00 15,5 10,3 13,8 16,8 15,6 19 10 36 19 W 1019,3 37 60 0,0
22.05.2019 08:00:00 13,3 9,5 10,2 17,0 15,6 13 7 25 14 W 1019,4 39 60 0,0
22.05.2019 07:00:00 11,1 9,0 6,8 17,2 15,6 11 6 22 12 W 1019,1 29 12 0,0
22.05.2019 06:00:00 10,5 8,8 6,5 17,3 15,6 6 4 12 6 W 1018,9 16 0 0,0
22.05.2019 05:00:00 11,4 9,3 7,2 17,5 15,6 8 4 13 7 WZW 1018,7 33 0 0,0
22.05.2019 04:00:00 12,0 8,7 8,9 17,7 15,6 2 1 24 13 W 1018,8 33 0 0,0
22.05.2019 03:00:00 13,7 9,5 12,7 17,9 15,6 13 7 24 13 W 1018,7 35 0 0,0
22.05.2019 02:00:00 13,8 9,8 11,3 18,1 15,6 10 5 21 11 W 1018,6 34 0 0,0
22.05.2019 01:00:00 14,2 9,8 12,7 18,2 15,5 11 6 22 12 W 1018,8 38 0 0,0
22.05.2019 00:00:00 14,8 10,0 13,5 18,4 15,6 13 7 22 12 W 1018,7 47 0 0,0
21.05.2019 23:00:00 15,3 9,6 13,5 18,6 15,6 12 6 23 12 W 1018,7 60 0 0,0
21.05.2019 22:00:00 16,9 9,6 15,3 18,8 15,6 16 9 35 19 NW 1017,9 60 0 0,0
21.05.2019 21:00:00 18,3 9,9 16,4 18,8 15,6 11 6 31 17 NW 1017,0 59 50 0,0
21.05.2019 20:00:00 20,5 9,1 20,9 18,8 15,5 20 11 40 21 WNW 1016,2 42 51 0,0
21.05.2019 19:00:00 21,7 8,6 24,3 18,7 15,6 21 12 39 21 WNW 1015,7 31 60 0,0
21.05.2019 18:00:00 22,0 9,2 25,7 18,4 15,5 21 12 40 22 WNW 1015,8 29 60 0,0
21.05.2019 17:00:00 21,8 10,0 24,7 18,1 15,6 23 12 42 23 NW 1016,2 30 60 0,0
21.05.2019 16:00:00 21,4 9,6 25,3 17,6 15,5 25 13 44 24 W 1016,6 32 60 0,0
21.05.2019 15:00:00 20,8 10,3 28,1 17,1 15,6 24 13 43 23 WNW 1017,0 33 60 0,0
21.05.2019 14:00:00 20,2 10,3 21,5 16,7 15,6 26 14 41 22 WNW 1017,1 20 47 0,0
21.05.2019 13:00:00 19,7 10,7 20,7 16,4 15,6 23 13 39 21 WNW 1017,4 38 31 0,0
21.05.2019 12:00:00 18,0 10,6 21,7 16,1 15,5 24 13 48 26 WNW 1017,3 20 57 0,0
21.05.2019 11:00:00 16,7 11,0 17,7 16,0 15,6 27 15 40 21 W 1017,5 19 42 0,0
21.05.2019 10:00:00 14,7 11,1 15,1 15,9 15,5 23 12 38 20 W 1017,7 19 50 0,0
21.05.2019 09:00:00 13,1 10,5 12,7 16,0 15,5 20 11 30 16 W 1017,7 36 35 0,0
21.05.2019 08:00:00 11,6 10,2 9,8 16,1 15,6 16 9 25 13 W 1017,3 18 29 0,0
21.05.2019 07:00:00 10,3 9,2 9,2 16,3 15,5 13 7 23 12 W 1016,9 20 14 0,0
21.05.2019 06:00:00 10,2 9,1 9,1 16,4 15,6 13 7 29 16 W 1016,6 20 0 0,0
21.05.2019 05:00:00 10,2 9,0 8,8 16,6 15,6 12 7 23 12 W 1016,5 29 0 0,0
21.05.2019 04:00:00 10,2 8,6 8,9 16,8 15,6 11 6 22 12 W 1016,5 35 0 0,0
21.05.2019 03:00:00 10,5 8,8 9,2 16,9 15,6 13 7 23 12 W 1016,5 36 0 0,0
21.05.2019 02:00:00 11,3 8,7 10,1 17,1 15,6 15 8 27 15 W 1016,5 42 0 0,0
21.05.2019 01:00:00 12,0 8,8 10,8 17,2 15,5 15 8 37 20 W 1016,5 46 0 0,0
21.05.2019 00:00:00 13,1 8,8 11,4 17,4 15,6 15 8 27 15 W 1016,1 52 0 0,0
20.05.2019 23:00:00 13,4 9,6 11,4 17,5 15,5 13 7 24 13 W 1015,6 18 0 0,0
20.05.2019 22:00:00 14,3 9,5 12,5 17,7 15,6 11 6 29 16 W 1014,7 55 0 0,0
20.05.2019 21:00:00 16,5 9,4 15,0 17,7 15,6 20 11 40 22 NW 1013,9 59 37 0,0
20.05.2019 20:00:00 18,2 8,5 17,1 17,7 15,6 19 10 36 20 NW 1013,4 60 45 0,0
20.05.2019 19:00:00 19,7 8,4 19,5 17,5 15,6 23 12 39 21 NW 1012,9 46 54 0,0
20.05.2019 18:00:00 19,7 8,7 20,1 17,3 15,6 21 12 43 23 NW 1012,8 33 52 0,0
20.05.2019 17:00:00 19,0 7,1 20,1 17,0 15,6 25 13 45 24 WNW 1012,8 20 52 0,0
20.05.2019 16:00:00 19,1 9,3 20,8 16,8 15,6 25 13 47 26 NW 1013,3 60 24 0,0
20.05.2019 15:00:00 17,2 8,1 18,8 16,5 15,6 27 15 42 23 WNW 1013,9 60 21 0,0
20.05.2019 14:00:00 16,8 8,2 19,2 16,2 15,6 24 13 44 24 WNW 1014,1 60 8 0,0
20.05.2019 13:00:00 16,8 9,5 15,5 16,0 15,6 27 14 47 25 W 1014,2 60 17 0,0
20.05.2019 12:00:00 15,3 8,5 16,6 15,8 15,6 30 16 50 27 W 1014,1 28 34 0,0
20.05.2019 11:00:00 14,7 9,5 16,3 15,7 15,6 27 15 46 25 W 1014,4 28 49 0,0
20.05.2019 10:00:00 14,1 10,1 13,4 15,7 15,6 26 14 42 23 W 1014,3 29 26 0,0
20.05.2019 09:00:00 12,5 9,7 12,3 15,7 15,6 16 9 42 23 W 1014,3 27 28 0,0
20.05.2019 08:00:00 11,6 9,7 10,6 15,8 15,6 18 10 36 19 W 1013,8 17 10 0,0
20.05.2019 07:00:00 11,0 8,7 9,8 16,0 15,6 23 12 39 21 W 1013,4 21 0 0,0
20.05.2019 06:00:00 11,4 9,1 10,2 16,1 15,6 21 11 44 24 W 1013,1 21 0 0,0
20.05.2019 05:00:00 11,4 9,3 10,6 16,2 15,6 21 11 34 18 W 1012,9 22 0 0,0
20.05.2019 04:00:00 11,6 9,0 10,7 16,3 15,6 21 12 43 23 W 1012,7 26 0 0,0
20.05.2019 03:00:00 11,8 9,7 10,8 16,4 15,6 25 14 46 25 W 1012,6 20 0 0,0
20.05.2019 02:00:00 11,8 9,5 10,9 16,5 15,6 19 10 45 25 W 1012,9 14 0 0,0
20.05.2019 01:00:00 12,3 9,1 11,8 16,6 15,6 26 14 42 23 W 1012,9 51 0 0,0
20.05.2019 00:00:00 12,1 9,5 11,6 16,8 15,6 23 13 40 21 W 1012,9 47 0 0,0
19.05.2019 23:00:00 12,4 9,6 11,4 16,9 15,6 27 15 48 26 W 1012,9 47 0 0,0
19.05.2019 22:00:00 13,1 9,3 12,7 17,0 15,6 25 14 50 27 W 1011,8 60 0 0,0
19.05.2019 21:00:00 13,4 9,1 13,1 17,0 15,6 28 15 48 26 W 1011,2 60 0 0,0
19.05.2019 20:00:00 14,3 9,3 14,5 17,0 15,6 29 16 50 27 W 1010,6 59 1 0,0
19.05.2019 19:00:00 15,6 9,5 15,4 16,9 15,6 29 15 46 25 W 1009,9 60 37 0,0
19.05.2019 18:00:00 14,7 8,4 14,8 16,8 15,6 29 16 59 32 W 1010,0 60 2 0,0
19.05.2019 17:00:00 17,3 7,3 19,0 16,6 15,6 31 17 48 26 WNW 1009,6 54 42 0,0
19.05.2019 16:00:00 16,3 9,0 15,0 16,4 15,6 28 15 45 24 WNW 1009,7 60 1 0,0
19.05.2019 15:00:00 14,3 9,3 15,8 16,2 15,6 29 16 46 25 WNW 1010,1 20 0 0,0
19.05.2019 14:00:00 14,5 8,7 16,1 16,0 15,6 24 13 40 21 WNW 1010,0 60 3 0,0
19.05.2019 13:00:00 14,6 8,8 17,5 15,8 15,6 26 14 45 24 W 1009,9 60 27 0,0
19.05.2019 12:00:00 13,5 9,0 14,6 15,7 15,6 24 13 38 21 WNW 1010,2 60 1 0,0
19.05.2019 11:00:00 12,3 8,4 14,1 15,6 15,6 23 12 38 20 W 1010,1 60 0 0,0
19.05.2019 10:00:00 12,0 8,1 12,8 15,6 15,6 23 12 37 20 W 1010,1 60 6 0,0
19.05.2019 09:00:00 10,9 7,4 10,6 15,7 15,7 21 11 37 20 W 1009,9 59 6 0,0
19.05.2019 08:00:00 9,8 7,2 9,1 15,8 15,6 14 8 27 15 W 1009,9 36 0 0,0
19.05.2019 07:00:00 9,2 6,6 8,6 16,0 15,6 13 7 26 14 W 1009,8 60 0 0,0
19.05.2019 06:00:00 9,0 6,8 7,2 16,1 15,6 11 6 24 13 WZW 1009,6 60 0 0,0
19.05.2019 05:00:00 8,4 6,7 6,7 16,3 15,7 9 5 16 8 W 1009,8 60 0 0,0
19.05.2019 04:00:00 8,0 6,6 6,7 16,5 15,6 9 5 21 11 W 1010,1 53 0 0,0
19.05.2019 03:00:00 8,5 7,0 7,2 16,6 15,7 10 5 20 11 W 1010,2 60 0 0,0
19.05.2019 02:00:00 9,5 7,4 8,2 16,8 15,7 10 6 30 16 W 1010,5 60 0 0,0
19.05.2019 01:00:00 10,9 7,8 10,3 16,9 15,7 15 8 31 17 W 1010,6 60 0 0,0
19.05.2019 00:00:00 11,1 8,3 9,9 17,1 15,7 14 8 26 14 W 1010,8 60 0 0,0
18.05.2019 23:00:00 11,2 8,2 9,9 17,2 15,7 16 8 27 14 W 1010,9 60 0 0,0
18.05.2019 22:00:00 12,3 7,8 11,4 17,3 15,7 18 10 31 17 WNW 1010,6 60 0 0,0
18.05.2019 21:00:00 12,5 8,6 11,9 17,4 15,7 9 5 29 16 W 1009,9 60 31 0,0
18.05.2019 20:00:00 13,4 8,7 12,0 17,4 15,7 16 9 34 18 W 1009,2 33 12 0,0
18.05.2019 19:00:00 13,0 8,3 12,4 17,3 15,7 16 9 37 20 WZW 1009,0 60 0 0,0
18.05.2019 18:00:00 13,1 9,0 12,6 17,1 15,7 18 10 44 24 WZW 1008,7 52 1 0,0
18.05.2019 17:00:00 16,5 7,2 19,2 16,8 15,7 24 13 39 21 W 1007,7 60 15 0,0
18.05.2019 16:00:00 17,2 8,1 16,7 16,4 15,7 23 12 37 20 WNW 1007,5 20 19 0,0
18.05.2019 15:00:00 17,1 8,0 20,8 16,0 15,7 22 12 40 22 WNW 1007,7 54 42 0,0
18.05.2019 14:00:00 16,7 8,4 16,0 15,8 15,7 24 13 42 23 WNW 1007,9 60 25 0,0
18.05.2019 13:00:00 14,9 8,4 15,6 15,6 15,7 21 11 37 20 W 1008,5 60 11 0,0
18.05.2019 12:00:00 14,7 8,9 15,4 15,4 15,7 20 11 44 24 WNW 1008,9 60 22 0,0
18.05.2019 11:00:00 12,8 7,9 12,9 15,4 15,7 27 14 45 25 W 1008,9 60 0 0,0
18.05.2019 10:00:00 12,4 7,9 11,4 15,4 15,7 24 13 42 23 WNW 1008,8 60 17 0,0
18.05.2019 09:00:00 11,2 8,2 10,5 15,4 15,7 19 10 40 22 W 1009,1 59 0 0,0
18.05.2019 08:00:00 10,5 8,1 9,4 15,5 15,7 14 8 27 15 W 1009,1 60 0 0,0
18.05.2019 07:00:00 10,3 7,9 9,2 15,6 15,7 15 8 27 15 W 1008,7 60 0 0,0
18.05.2019 06:00:00 10,0 7,9 9,0 15,7 15,7 16 9 27 14 W 1008,3 57 0 0,0
18.05.2019 05:00:00 9,9 7,7 8,7 15,8 15,7 15 8 35 19 W 1008,2 57 0 0,2
18.05.2019 04:00:00 10,6 7,7 9,3 15,9 15,7 24 13 39 21 W 1008,3 59 0 0,0
18.05.2019 03:00:00 10,9 8,8 9,8 15,9 15,7 18 10 28 15 W 1008,7 36 0 0,0
18.05.2019 02:00:00 10,5 9,1 9,4 16,0 15,7 9 5 27 14 WNW 1009,1 38 0 0,0
18.05.2019 01:00:00 10,5 8,4 9,3 16,1 15,7 18 10 36 19 W 1008,9 19 0 0,0
18.05.2019 00:00:00 10,6 8,5 9,5 16,2 15,7 13 7 23 13 W 1009,0 60 0 0,2
17.05.2019 23:00:00 10,6 9,0 9,7 16,2 15,7 12 7 44 24 W 1009,0 20 0 0,2
17.05.2019 22:00:00 11,4 9,0 10,2 16,3 15,7 20 11 35 19 W 1008,1 60 0 0,0
17.05.2019 21:00:00 11,3 9,9 10,8 16,4 15,7 13 7 21 12 W 1007,4 59 0 0,0
17.05.2019 20:00:00 11,1 10,6 11,1 16,4 15,7 5 3 11 6 Z 1007,3 6 0 0,5
17.05.2019 19:00:00 10,8 10,3 11,0 16,5 15,7 3 1 18 10 Z 1007,4 5 0 1,6
17.05.2019 18:00:00 10,9 10,4 10,5 16,6 15,7 8 4 43 23 NW 1007,4 3,7 0 3,9
17.05.2019 17:00:00 11,4 10,9 11,1 16,7 15,7 14 7 29 15 ONO 1006,4 6 0 0,6
17.05.2019 16:00:00 10,9 10,3 11,1 16,8 15,7 20 11 32 17 O 1006,4 4,7 0 1,2
17.05.2019 15:00:00 11,4 10,9 11,3 16,9 15,6 18 10 32 18 O 1006,1 3,6 0 2,8
17.05.2019 14:00:00 11,2 10,6 11,3 17,0 15,7 18 10 29 16 ONO 1005,7 3,7 0 3,0
17.05.2019 13:00:00 11,3 10,8 11,2 17,2 15,7 19 11 33 18 O 1005,4 1,9 0 2,2
17.05.2019 12:00:00 11,1 10,5 10,8 17,3 15,7 21 11 34 18 O 1004,7 2,2 0 2,3
17.05.2019 11:00:00 11,0 10,1 10,7 17,4 15,6 19 11 30 16 O 1004,2 1,4 0 2,0

tt = temperatuur
td = dauwpunt
tt 5cm = temperatuur 5cm
tt -20cm = temperatuur -20cm
tt -100cm = temperatuur -100cm
ff = windsnelheid
fx = windstoten
dd = windrichting
ppp = luchtdruk
vv = zicht
sd = Zonneschijnduur
rr = neerslag

Weerstations in de omgeving